Year,Month,Day,Hour,Minute,Value (Times are PST for temperature in C)
2010,08,14,00,00,17.90
2010,08,14,00,01,17.80
2010,08,14,00,02,17.80
2010,08,14,00,03,17.80
2010,08,14,00,04,17.80
2010,08,14,00,05,17.80
2010,08,14,00,06,17.80
2010,08,14,00,07,17.80
2010,08,14,00,08,17.80
2010,08,14,00,09,17.70
2010,08,14,00,10,17.70
2010,08,14,00,11,17.70
2010,08,14,00,12,17.70
2010,08,14,00,18,17.60
2010,08,14,00,19,17.60
2010,08,14,00,20,17.50
2010,08,14,00,21,17.50
2010,08,14,00,22,17.50
2010,08,14,00,23,17.50
2010,08,14,00,24,17.40
2010,08,14,00,25,17.40
2010,08,14,00,26,17.40
2010,08,14,00,27,17.40
2010,08,14,00,28,17.30
2010,08,14,00,29,17.30
2010,08,14,00,30,17.30
2010,08,14,00,31,17.30
2010,08,14,00,32,17.30
2010,08,14,00,33,17.20
2010,08,14,00,34,17.20
2010,08,14,00,35,17.20
2010,08,14,00,36,17.20
2010,08,14,00,37,17.10
2010,08,14,00,38,17.10
2010,08,14,00,39,17.10
2010,08,14,00,40,17.10
2010,08,14,00,41,17.10
2010,08,14,00,42,17.00
2010,08,14,00,43,17.00
2010,08,14,00,44,17.00
2010,08,14,00,45,16.90
2010,08,14,00,46,16.90
2010,08,14,00,47,16.90
2010,08,14,00,48,16.80
2010,08,14,00,49,16.80
2010,08,14,00,50,16.80
2010,08,14,00,51,16.80
2010,08,14,00,52,16.70
2010,08,14,00,53,16.70
2010,08,14,00,54,16.60
2010,08,14,00,55,16.60
2010,08,14,00,56,16.60
2010,08,14,00,57,16.60
2010,08,14,00,58,16.50
2010,08,14,00,59,16.50
2010,08,14,01,00,16.50
2010,08,14,01,01,16.50
2010,08,14,01,02,16.40
2010,08,14,01,03,16.40
2010,08,14,01,04,16.40
2010,08,14,01,05,16.40
2010,08,14,01,06,16.40
2010,08,14,01,07,16.40
2010,08,14,01,08,16.40
2010,08,14,01,09,16.40
2010,08,14,01,10,16.30
2010,08,14,01,11,16.30
2010,08,14,01,12,16.30
2010,08,14,01,13,16.30
2010,08,14,01,14,16.30
2010,08,14,01,15,16.30
2010,08,14,01,16,16.30
2010,08,14,01,17,16.30
2010,08,14,01,18,16.30
2010,08,14,01,19,16.30
2010,08,14,01,20,16.30
2010,08,14,01,21,16.20
2010,08,14,01,22,16.20
2010,08,14,01,23,16.20
2010,08,14,01,24,16.20
2010,08,14,01,25,16.20
2010,08,14,01,26,16.20
2010,08,14,01,27,16.20
2010,08,14,01,28,16.20
2010,08,14,01,29,16.20
2010,08,14,01,30,16.20
2010,08,14,01,31,16.20
2010,08,14,01,32,16.10
2010,08,14,01,33,16.10
2010,08,14,01,34,16.10
2010,08,14,01,35,16.10
2010,08,14,01,36,16.10
2010,08,14,01,37,16.10
2010,08,14,01,38,16.10
2010,08,14,01,39,16.00
2010,08,14,01,40,16.00
2010,08,14,01,41,16.00
2010,08,14,01,42,15.90
2010,08,14,01,43,15.90
2010,08,14,01,44,15.90
2010,08,14,01,45,15.90
2010,08,14,01,46,15.80
2010,08,14,01,47,15.80
2010,08,14,01,48,15.80
2010,08,14,01,49,15.80
2010,08,14,01,50,15.70
2010,08,14,01,51,15.70
2010,08,14,01,52,15.70
2010,08,14,01,53,15.70
2010,08,14,01,54,15.60
2010,08,14,01,55,15.60
2010,08,14,01,56,15.60
2010,08,14,01,57,15.60
2010,08,14,01,58,15.60
2010,08,14,01,59,15.50
2010,08,14,02,00,15.50
2010,08,14,02,01,15.50
2010,08,14,02,02,15.50
2010,08,14,02,03,15.50
2010,08,14,02,04,15.50
2010,08,14,02,05,15.50
2010,08,14,02,06,15.40
2010,08,14,02,07,15.40
2010,08,14,02,08,15.40
2010,08,14,02,09,15.40
2010,08,14,02,10,15.40
2010,08,14,02,11,15.40
2010,08,14,02,12,15.50
2010,08,14,02,13,15.50
2010,08,14,02,14,15.50
2010,08,14,02,15,15.50
2010,08,14,02,16,15.60
2010,08,14,02,17,15.60
2010,08,14,02,18,15.60
2010,08,14,02,19,15.60
2010,08,14,02,20,15.60
2010,08,14,02,21,15.60
2010,08,14,02,22,15.60
2010,08,14,02,23,15.60
2010,08,14,02,24,15.60
2010,08,14,02,25,15.60
2010,08,14,02,26,15.60
2010,08,14,02,27,15.60
2010,08,14,02,28,15.50
2010,08,14,02,29,15.50
2010,08,14,02,30,15.50
2010,08,14,02,31,15.40
2010,08,14,02,32,15.40
2010,08,14,02,33,15.40
2010,08,14,02,34,15.40
2010,08,14,02,35,15.30
2010,08,14,02,36,15.30
2010,08,14,02,37,15.30
2010,08,14,02,38,15.30
2010,08,14,02,39,15.30
2010,08,14,02,40,15.30
2010,08,14,02,41,15.30
2010,08,14,02,42,15.30
2010,08,14,02,43,15.30
2010,08,14,02,44,15.30
2010,08,14,02,45,15.30
2010,08,14,02,46,15.30
2010,08,14,02,47,15.30
2010,08,14,02,48,15.30
2010,08,14,02,49,15.30
2010,08,14,02,50,15.30
2010,08,14,02,51,15.30
2010,08,14,02,52,15.30
2010,08,14,02,53,15.30
2010,08,14,02,54,15.30
2010,08,14,02,55,15.30
2010,08,14,02,56,15.20
2010,08,14,02,57,15.20
2010,08,14,02,58,15.20
2010,08,14,02,59,15.20
2010,08,14,03,00,15.10
2010,08,14,03,01,15.10
2010,08,14,03,02,15.10
2010,08,14,03,03,15.10
2010,08,14,03,04,15.00
2010,08,14,03,05,15.00
2010,08,14,03,06,15.00
2010,08,14,03,07,15.00
2010,08,14,03,08,15.00
2010,08,14,03,09,15.00
2010,08,14,03,10,15.00
2010,08,14,03,11,15.00
2010,08,14,03,12,15.00
2010,08,14,03,13,15.00
2010,08,14,03,14,15.00
2010,08,14,03,15,15.00
2010,08,14,03,16,15.00
2010,08,14,03,17,15.00
2010,08,14,03,18,15.00
2010,08,14,03,19,15.00
2010,08,14,03,20,15.00
2010,08,14,03,21,15.00
2010,08,14,03,22,15.00
2010,08,14,03,23,15.00
2010,08,14,03,24,15.00
2010,08,14,03,25,15.00
2010,08,14,03,26,15.00
2010,08,14,03,27,15.00
2010,08,14,03,28,15.00
2010,08,14,03,29,15.00
2010,08,14,03,30,15.00
2010,08,14,03,31,15.00
2010,08,14,03,32,15.00
2010,08,14,03,33,15.00
2010,08,14,03,34,15.00
2010,08,14,03,35,15.00
2010,08,14,03,36,15.00
2010,08,14,03,37,15.00
2010,08,14,03,38,15.00
2010,08,14,03,39,15.00
2010,08,14,03,40,15.00
2010,08,14,03,41,15.00
2010,08,14,03,42,15.00
2010,08,14,03,43,15.00
2010,08,14,03,44,15.00
2010,08,14,03,45,15.00
2010,08,14,03,46,15.00
2010,08,14,03,47,15.00
2010,08,14,03,48,15.00
2010,08,14,03,49,15.00
2010,08,14,03,50,15.00
2010,08,14,03,51,15.00
2010,08,14,03,52,15.00
2010,08,14,03,53,15.00
2010,08,14,03,54,15.00
2010,08,14,03,55,15.00
2010,08,14,03,56,15.00
2010,08,14,03,57,14.90
2010,08,14,03,58,14.90
2010,08,14,03,59,14.90
2010,08,14,04,00,14.90
2010,08,14,04,01,14.90
2010,08,14,04,02,14.90
2010,08,14,04,03,14.90
2010,08,14,04,04,14.80
2010,08,14,04,05,14.80
2010,08,14,04,06,14.80
2010,08,14,04,07,14.80
2010,08,14,04,08,14.80
2010,08,14,04,09,14.80
2010,08,14,04,10,14.70
2010,08,14,04,11,14.70
2010,08,14,04,12,14.70
2010,08,14,04,13,14.70
2010,08,14,04,14,14.70
2010,08,14,04,15,14.70
2010,08,14,04,16,14.70
2010,08,14,04,17,14.70
2010,08,14,04,18,14.70
2010,08,14,04,19,14.60
2010,08,14,04,20,14.60
2010,08,14,04,21,14.60
2010,08,14,04,22,14.60
2010,08,14,04,23,14.70
2010,08,14,04,24,14.70
2010,08,14,04,25,14.70
2010,08,14,04,26,14.70
2010,08,14,04,27,14.70
2010,08,14,04,28,14.70
2010,08,14,04,29,14.80
2010,08,14,04,30,14.80
2010,08,14,04,31,14.80
2010,08,14,04,32,14.80
2010,08,14,04,33,14.80
2010,08,14,04,34,14.80
2010,08,14,04,35,14.90
2010,08,14,04,36,14.90
2010,08,14,04,37,14.90
2010,08,14,04,38,14.90
2010,08,14,04,39,14.90
2010,08,14,04,40,14.90
2010,08,14,04,41,14.90
2010,08,14,04,42,14.90
2010,08,14,04,43,14.90
2010,08,14,04,44,14.90
2010,08,14,04,45,14.80
2010,08,14,04,46,14.80
2010,08,14,04,47,14.80
2010,08,14,04,48,14.80
2010,08,14,04,49,14.80
2010,08,14,04,50,14.80
2010,08,14,04,51,14.80
2010,08,14,04,52,14.80
2010,08,14,04,53,14.70
2010,08,14,04,54,14.70
2010,08,14,04,55,14.70
2010,08,14,04,56,14.70
2010,08,14,04,57,14.70
2010,08,14,04,58,14.70
2010,08,14,04,59,14.70
2010,08,14,05,00,14.60
2010,08,14,05,01,14.60
2010,08,14,05,02,14.60
2010,08,14,05,03,14.60
2010,08,14,05,04,14.60
2010,08,14,05,05,14.70
2010,08,14,05,06,14.70
2010,08,14,05,07,14.70
2010,08,14,05,08,14.70
2010,08,14,05,09,14.70
2010,08,14,05,10,14.70
2010,08,14,05,11,14.70
2010,08,14,05,12,14.70
2010,08,14,05,13,14.80
2010,08,14,05,14,14.80
2010,08,14,05,15,14.80
2010,08,14,05,16,14.80
2010,08,14,05,17,14.80
2010,08,14,05,18,14.80
2010,08,14,05,19,14.80
2010,08,14,05,20,14.80
2010,08,14,05,21,14.80
2010,08,14,05,22,14.80
2010,08,14,05,23,14.80
2010,08,14,05,24,14.80
2010,08,14,05,25,14.80
2010,08,14,05,26,14.80
2010,08,14,05,27,14.80
2010,08,14,05,28,14.80
2010,08,14,05,29,14.80
2010,08,14,05,30,14.80
2010,08,14,05,31,14.80
2010,08,14,05,32,14.80
2010,08,14,05,33,14.90
2010,08,14,05,34,15.00
2010,08,14,05,35,15.00
2010,08,14,05,36,15.00
2010,08,14,05,37,15.20
2010,08,14,05,38,15.40
2010,08,14,05,39,15.60
2010,08,14,05,40,15.70
2010,08,14,05,41,15.90
2010,08,14,05,42,16.00
2010,08,14,05,43,16.20
2010,08,14,05,44,16.30
2010,08,14,05,45,16.50
2010,08,14,05,46,16.60
2010,08,14,05,47,16.70
2010,08,14,05,48,16.90
2010,08,14,05,49,17.00
2010,08,14,05,50,17.00
2010,08,14,05,51,17.10
2010,08,14,05,52,17.20
2010,08,14,05,53,17.20
2010,08,14,05,54,17.30
2010,08,14,05,55,17.30
2010,08,14,05,56,17.30
2010,08,14,05,57,17.40
2010,08,14,05,58,17.40
2010,08,14,05,59,17.50
2010,08,14,06,00,17.60
2010,08,14,06,01,17.60
2010,08,14,06,02,17.70
2010,08,14,06,03,17.70
2010,08,14,06,04,17.80
2010,08,14,06,05,17.80
2010,08,14,06,06,17.90
2010,08,14,06,07,18.00
2010,08,14,06,08,18.00
2010,08,14,06,09,18.10
2010,08,14,06,10,18.20
2010,08,14,06,11,18.30
2010,08,14,06,12,18.40
2010,08,14,06,13,18.40
2010,08,14,06,14,18.50
2010,08,14,06,15,18.50
2010,08,14,06,16,18.60
2010,08,14,06,17,18.60
2010,08,14,06,18,18.70
2010,08,14,06,19,18.70
2010,08,14,06,20,18.70
2010,08,14,06,21,18.80
2010,08,14,06,22,18.80
2010,08,14,06,23,18.90
2010,08,14,06,24,18.90
2010,08,14,06,25,19.00
2010,08,14,06,26,19.00
2010,08,14,06,27,19.10
2010,08,14,06,28,19.10
2010,08,14,06,29,19.10
2010,08,14,06,30,19.10
2010,08,14,06,31,19.20
2010,08,14,06,32,19.20
2010,08,14,06,33,19.20
2010,08,14,06,34,19.20
2010,08,14,06,35,19.20
2010,08,14,06,36,19.10
2010,08,14,06,37,19.10
2010,08,14,06,38,19.10
2010,08,14,06,39,19.10
2010,08,14,06,40,19.10
2010,08,14,06,41,19.00
2010,08,14,06,42,19.10
2010,08,14,06,43,19.10
2010,08,14,06,44,19.10
2010,08,14,06,45,19.10
2010,08,14,06,46,19.20
2010,08,14,06,47,19.30
2010,08,14,06,48,19.30
2010,08,14,06,49,19.40
2010,08,14,06,50,19.40
2010,08,14,06,51,19.40
2010,08,14,06,52,19.50
2010,08,14,06,53,19.50
2010,08,14,06,54,19.60
2010,08,14,06,55,19.60
2010,08,14,06,56,19.60
2010,08,14,06,57,19.60
2010,08,14,06,58,19.70
2010,08,14,06,59,19.80
2010,08,14,07,00,19.80
2010,08,14,07,01,19.90
2010,08,14,07,02,20.00
2010,08,14,07,03,20.00
2010,08,14,07,04,20.00
2010,08,14,07,05,20.00
2010,08,14,07,06,20.00
2010,08,14,07,07,20.00
2010,08,14,07,08,20.00
2010,08,14,07,09,20.00
2010,08,14,07,10,20.10
2010,08,14,07,11,20.10
2010,08,14,07,12,20.10
2010,08,14,07,13,20.10
2010,08,14,07,14,20.10
2010,08,14,07,15,20.10
2010,08,14,07,16,20.10
2010,08,14,07,17,20.10
2010,08,14,07,18,20.10
2010,08,14,07,19,20.10
2010,08,14,07,20,20.10
2010,08,14,07,21,20.10
2010,08,14,07,22,20.10
2010,08,14,07,23,20.10
2010,08,14,07,24,20.10
2010,08,14,07,25,20.10
2010,08,14,07,26,20.10
2010,08,14,07,27,20.10
2010,08,14,07,28,20.20
2010,08,14,07,29,20.20
2010,08,14,07,30,20.20
2010,08,14,07,31,20.30
2010,08,14,07,32,20.30
2010,08,14,07,33,20.40
2010,08,14,07,34,20.40
2010,08,14,07,35,20.40
2010,08,14,07,36,20.40
2010,08,14,07,37,20.50
2010,08,14,07,38,20.50
2010,08,14,07,39,20.60
2010,08,14,07,40,20.60
2010,08,14,07,41,20.60
2010,08,14,07,42,20.70
2010,08,14,07,43,20.70
2010,08,14,07,44,20.80
2010,08,14,07,45,20.80
2010,08,14,07,46,20.90
2010,08,14,07,47,20.90
2010,08,14,07,48,20.90
2010,08,14,07,49,20.90
2010,08,14,07,50,20.90
2010,08,14,07,51,21.00
2010,08,14,07,52,21.00
2010,08,14,07,53,21.00
2010,08,14,07,54,21.10
2010,08,14,07,55,21.10
2010,08,14,07,56,21.20
2010,08,14,07,57,21.20
2010,08,14,07,58,21.30
2010,08,14,07,59,21.40
2010,08,14,08,00,21.50
2010,08,14,08,01,21.60
2010,08,14,08,02,21.60
2010,08,14,08,03,21.70
2010,08,14,08,04,21.80
2010,08,14,08,05,21.80
2010,08,14,08,06,21.90
2010,08,14,08,07,22.00
2010,08,14,08,08,22.20
2010,08,14,08,09,22.30
2010,08,14,08,10,22.40
2010,08,14,08,11,22.60
2010,08,14,08,12,22.80
2010,08,14,08,13,23.00
2010,08,14,08,14,23.20
2010,08,14,08,15,23.40
2010,08,14,08,16,23.50
2010,08,14,08,17,23.70
2010,08,14,08,18,23.90
2010,08,14,08,19,24.00
2010,08,14,08,20,24.10
2010,08,14,08,21,24.30
2010,08,14,08,22,24.40
2010,08,14,08,23,24.50
2010,08,14,08,24,24.60
2010,08,14,08,25,24.70
2010,08,14,08,26,24.80
2010,08,14,08,27,24.80
2010,08,14,08,28,24.90
2010,08,14,08,29,25.00
2010,08,14,08,30,25.10
2010,08,14,08,31,25.10
2010,08,14,08,32,25.20
2010,08,14,08,33,25.30
2010,08,14,08,34,25.30
2010,08,14,08,35,25.40
2010,08,14,08,36,25.40
2010,08,14,08,37,25.50
2010,08,14,08,38,25.60
2010,08,14,08,39,25.60
2010,08,14,08,40,25.70
2010,08,14,08,41,25.70
2010,08,14,08,42,25.80
2010,08,14,08,43,25.80
2010,08,14,08,44,25.90
2010,08,14,08,45,25.90
2010,08,14,08,46,26.00
2010,08,14,08,47,26.00
2010,08,14,08,48,26.10
2010,08,14,08,49,26.20
2010,08,14,08,50,26.30
2010,08,14,08,51,26.30
2010,08,14,08,52,26.40
2010,08,14,08,53,26.50
2010,08,14,08,54,26.60
2010,08,14,08,55,26.60
2010,08,14,08,56,26.70
2010,08,14,08,57,26.70
2010,08,14,08,58,26.70
2010,08,14,08,59,26.80
2010,08,14,09,00,26.90
2010,08,14,09,01,27.00
2010,08,14,09,02,27.10
2010,08,14,09,03,27.20
2010,08,14,09,04,27.30
2010,08,14,09,05,27.40
2010,08,14,09,06,27.40
2010,08,14,09,07,27.50
2010,08,14,09,08,27.60
2010,08,14,09,09,27.60
2010,08,14,09,10,27.60
2010,08,14,09,11,27.70
2010,08,14,09,12,27.70
2010,08,14,09,13,27.70
2010,08,14,09,14,27.70
2010,08,14,09,15,27.80
2010,08,14,09,16,27.80
2010,08,14,09,17,27.90
2010,08,14,09,18,27.90
2010,08,14,09,19,28.00
2010,08,14,09,20,28.10
2010,08,14,09,21,28.10
2010,08,14,09,22,28.20
2010,08,14,09,23,28.20
2010,08,14,09,24,28.30
2010,08,14,09,25,28.30
2010,08,14,09,26,28.40
2010,08,14,09,27,28.40
2010,08,14,09,28,28.50
2010,08,14,09,29,28.50
2010,08,14,09,30,28.60
2010,08,14,09,31,28.60
2010,08,14,09,32,28.60
2010,08,14,09,33,28.60
2010,08,14,09,34,28.50
2010,08,14,09,35,28.50
2010,08,14,09,36,28.50
2010,08,14,09,37,28.40
2010,08,14,09,38,28.40
2010,08,14,09,39,28.30
2010,08,14,09,40,28.30
2010,08,14,09,41,28.30
2010,08,14,09,42,28.30
2010,08,14,09,43,28.30
2010,08,14,09,44,28.40
2010,08,14,09,45,28.40
2010,08,14,09,46,28.40
2010,08,14,09,47,28.40
2010,08,14,09,48,28.50
2010,08,14,09,49,28.50
2010,08,14,09,50,28.50
2010,08,14,09,51,28.50
2010,08,14,09,52,28.60
2010,08,14,09,53,28.60
2010,08,14,09,54,28.70
2010,08,14,09,55,28.70
2010,08,14,09,56,28.70
2010,08,14,09,57,28.80
2010,08,14,09,58,28.80
2010,08,14,09,59,28.90
2010,08,14,10,00,29.00
2010,08,14,10,01,29.00
2010,08,14,10,02,28.90
2010,08,14,10,03,28.80
2010,08,14,10,04,28.70
2010,08,14,10,05,28.70
2010,08,14,10,06,28.70
2010,08,14,10,07,28.70
2010,08,14,10,08,28.70
2010,08,14,10,09,28.80
2010,08,14,10,10,28.80
2010,08,14,10,11,28.80
2010,08,14,10,12,28.90
2010,08,14,10,13,28.90
2010,08,14,10,14,29.00
2010,08,14,10,15,29.00
2010,08,14,10,16,28.90
2010,08,14,10,17,28.80
2010,08,14,10,18,28.80
2010,08,14,10,19,28.70
2010,08,14,10,20,28.70
2010,08,14,10,21,28.70
2010,08,14,10,22,28.60
2010,08,14,10,23,28.60
2010,08,14,10,24,28.60
2010,08,14,10,25,28.50
2010,08,14,10,26,28.50
2010,08,14,10,27,28.40
2010,08,14,10,28,28.40
2010,08,14,10,29,28.40
2010,08,14,10,30,28.40
2010,08,14,10,31,28.40
2010,08,14,10,32,28.50
2010,08,14,10,33,28.50
2010,08,14,10,34,28.60
2010,08,14,10,35,28.70
2010,08,14,10,36,28.70
2010,08,14,10,37,28.80
2010,08,14,10,38,29.00
2010,08,14,10,39,29.10
2010,08,14,10,40,29.10
2010,08,14,10,41,29.20
2010,08,14,10,42,29.20
2010,08,14,10,43,29.20
2010,08,14,10,44,29.20
2010,08,14,10,45,29.30
2010,08,14,10,46,29.30
2010,08,14,10,47,29.30
2010,08,14,10,48,29.40
2010,08,14,10,49,29.40
2010,08,14,10,50,29.40
2010,08,14,10,51,29.50
2010,08,14,10,52,29.50
2010,08,14,10,53,29.40
2010,08,14,10,54,29.30
2010,08,14,10,55,29.40
2010,08,14,10,56,29.40
2010,08,14,10,57,29.40
2010,08,14,10,58,29.50
2010,08,14,10,59,29.60
2010,08,14,11,00,29.70
2010,08,14,11,01,29.80
2010,08,14,11,02,29.80
2010,08,14,11,03,29.80
2010,08,14,11,04,29.80
2010,08,14,11,05,29.80
2010,08,14,11,06,29.80
2010,08,14,11,07,29.80
2010,08,14,11,08,29.70
2010,08,14,11,09,29.70
2010,08,14,11,10,29.70
2010,08,14,11,11,29.70
2010,08,14,11,12,29.70
2010,08,14,11,13,29.60
2010,08,14,11,14,29.50
2010,08,14,11,15,29.40
2010,08,14,11,16,29.40
2010,08,14,11,17,29.40
2010,08,14,11,18,29.30
2010,08,14,11,19,29.30
2010,08,14,11,20,29.40
2010,08,14,11,21,29.40
2010,08,14,11,22,29.40
2010,08,14,11,23,29.50
2010,08,14,11,24,29.60
2010,08,14,11,25,29.70
2010,08,14,11,26,29.80
2010,08,14,11,27,29.70
2010,08,14,11,28,29.70
2010,08,14,11,29,29.70
2010,08,14,11,30,29.70
2010,08,14,11,31,29.60
2010,08,14,11,32,29.40
2010,08,14,11,33,29.40
2010,08,14,11,34,29.40
2010,08,14,11,35,29.40
2010,08,14,11,36,29.50
2010,08,14,11,37,29.60
2010,08,14,11,38,29.70
2010,08,14,11,39,29.70
2010,08,14,11,40,29.60
2010,08,14,11,41,29.50
2010,08,14,11,42,29.40
2010,08,14,11,43,29.40
2010,08,14,11,44,29.40
2010,08,14,11,45,29.40
2010,08,14,11,46,29.50
2010,08,14,11,47,29.50
2010,08,14,11,48,29.60
2010,08,14,11,49,29.70
2010,08,14,11,50,29.80
2010,08,14,11,51,29.90
2010,08,14,11,52,30.00
2010,08,14,11,53,30.00
2010,08,14,11,54,29.90
2010,08,14,11,55,29.90
2010,08,14,11,56,29.90
2010,08,14,11,57,29.80
2010,08,14,11,58,29.80
2010,08,14,11,59,29.80
2010,08,14,12,00,29.90
2010,08,14,12,01,29.90
2010,08,14,12,02,30.00
2010,08,14,12,03,30.10
2010,08,14,12,04,30.00
2010,08,14,12,05,29.80
2010,08,14,12,06,29.70
2010,08,14,12,07,29.60
2010,08,14,12,08,29.60
2010,08,14,12,09,29.60
2010,08,14,12,10,29.80
2010,08,14,12,11,29.90
2010,08,14,12,12,30.10
2010,08,14,12,13,30.20
2010,08,14,12,14,30.30
2010,08,14,12,15,30.40
2010,08,14,12,16,30.30
2010,08,14,12,17,30.30
2010,08,14,12,18,30.30
2010,08,14,12,19,30.40
2010,08,14,12,20,30.40
2010,08,14,12,21,30.40
2010,08,14,12,22,30.30
2010,08,14,12,23,30.30
2010,08,14,12,24,30.40
2010,08,14,12,25,30.40
2010,08,14,12,26,30.40
2010,08,14,12,27,30.30
2010,08,14,12,28,30.20
2010,08,14,12,29,30.20
2010,08,14,12,30,30.20
2010,08,14,12,31,30.30
2010,08,14,12,32,30.40
2010,08,14,12,33,30.50
2010,08,14,12,34,30.60
2010,08,14,12,35,30.80
2010,08,14,12,36,30.90
2010,08,14,12,37,30.90
2010,08,14,12,38,30.80
2010,08,14,12,39,30.80
2010,08,14,12,40,30.80
2010,08,14,12,41,30.80
2010,08,14,12,42,30.80
2010,08,14,12,43,30.80
2010,08,14,12,44,30.90
2010,08,14,12,45,31.00
2010,08,14,12,46,31.00
2010,08,14,12,47,30.90
2010,08,14,12,48,30.80
2010,08,14,12,49,30.80
2010,08,14,12,50,30.80
2010,08,14,12,51,30.80
2010,08,14,12,52,30.80
2010,08,14,12,53,30.70
2010,08,14,12,54,30.80
2010,08,14,12,55,30.80
2010,08,14,12,56,30.80
2010,08,14,12,57,30.90
2010,08,14,12,58,30.90
2010,08,14,12,59,30.80
2010,08,14,13,00,30.80
2010,08,14,13,01,30.70
2010,08,14,13,02,30.70
2010,08,14,13,03,30.80
2010,08,14,13,04,30.80
2010,08,14,13,05,30.70
2010,08,14,13,06,30.70
2010,08,14,13,07,30.70
2010,08,14,13,08,30.70
2010,08,14,13,09,30.80
2010,08,14,13,10,30.90
2010,08,14,13,11,31.00
2010,08,14,13,12,31.10
2010,08,14,13,13,31.20
2010,08,14,13,14,31.20
2010,08,14,13,15,31.20
2010,08,14,13,16,31.20
2010,08,14,13,17,31.10
2010,08,14,13,18,31.00
2010,08,14,13,19,31.00
2010,08,14,13,20,31.00
2010,08,14,13,21,31.00
2010,08,14,13,22,31.10
2010,08,14,13,23,31.20
2010,08,14,13,24,31.20
2010,08,14,13,25,31.30
2010,08,14,13,26,31.50
2010,08,14,13,27,31.60
2010,08,14,13,28,31.80
2010,08,14,13,29,31.80
2010,08,14,13,30,31.60
2010,08,14,13,31,31.50
2010,08,14,13,32,31.30
2010,08,14,13,33,31.10
2010,08,14,13,34,31.10
2010,08,14,13,35,31.30
2010,08,14,13,36,31.40
2010,08,14,13,37,31.50
2010,08,14,13,38,31.60
2010,08,14,13,39,31.60
2010,08,14,13,40,31.70
2010,08,14,13,41,31.80
2010,08,14,13,42,31.70
2010,08,14,13,43,31.70
2010,08,14,13,44,31.60
2010,08,14,13,45,31.50
2010,08,14,13,46,31.40
2010,08,14,13,47,31.40
2010,08,14,13,48,31.40
2010,08,14,13,49,31.50
2010,08,14,13,50,31.60
2010,08,14,13,51,31.80
2010,08,14,13,52,31.80
2010,08,14,13,53,31.90
2010,08,14,13,54,31.90
2010,08,14,13,55,31.90
2010,08,14,13,56,31.80
2010,08,14,13,57,31.70
2010,08,14,13,58,31.70
2010,08,14,13,59,31.80
2010,08,14,14,00,31.80
2010,08,14,14,01,31.80
2010,08,14,14,02,31.90
2010,08,14,14,03,32.00
2010,08,14,14,04,32.10
2010,08,14,14,05,32.20
2010,08,14,14,06,32.20
2010,08,14,14,07,32.30
2010,08,14,14,08,32.30
2010,08,14,14,09,32.30
2010,08,14,14,10,32.10
2010,08,14,14,11,32.10
2010,08,14,14,12,32.00
2010,08,14,14,13,31.90
2010,08,14,14,14,31.90
2010,08,14,14,15,32.00
2010,08,14,14,16,32.10
2010,08,14,14,17,32.20
2010,08,14,14,18,32.40
2010,08,14,14,19,32.60
2010,08,14,14,20,32.70
2010,08,14,14,21,32.60
2010,08,14,14,22,32.60
2010,08,14,14,23,32.60
2010,08,14,14,24,32.60
2010,08,14,14,25,32.60
2010,08,14,14,26,32.50
2010,08,14,14,27,32.40
2010,08,14,14,28,32.50
2010,08,14,14,29,32.50
2010,08,14,14,30,32.70
2010,08,14,14,31,32.80
2010,08,14,14,32,32.90
2010,08,14,14,33,33.00
2010,08,14,14,34,33.00
2010,08,14,14,35,32.60
2010,08,14,14,36,32.30
2010,08,14,14,37,32.10
2010,08,14,14,38,32.10
2010,08,14,14,39,32.10
2010,08,14,14,40,32.20
2010,08,14,14,41,32.20
2010,08,14,14,42,32.20
2010,08,14,14,43,32.30
2010,08,14,14,44,32.40
2010,08,14,14,45,32.40
2010,08,14,14,46,32.30
2010,08,14,14,47,32.20
2010,08,14,14,48,32.20
2010,08,14,14,49,32.20
2010,08,14,14,50,32.10
2010,08,14,14,51,32.10
2010,08,14,14,52,32.10
2010,08,14,14,53,32.00
2010,08,14,14,54,32.00
2010,08,14,14,55,32.00
2010,08,14,14,56,32.10
2010,08,14,14,57,32.20
2010,08,14,14,58,32.30
2010,08,14,14,59,32.40
2010,08,14,15,00,32.50
2010,08,14,15,01,32.50
2010,08,14,15,02,32.60
2010,08,14,15,03,32.60
2010,08,14,15,04,32.60
2010,08,14,15,05,32.60
2010,08,14,15,06,32.60
2010,08,14,15,07,32.60
2010,08,14,15,08,32.60
2010,08,14,15,09,32.50
2010,08,14,15,10,32.60
2010,08,14,15,11,32.60
2010,08,14,15,12,32.60
2010,08,14,15,13,32.60
2010,08,14,15,14,32.50
2010,08,14,15,15,32.50
2010,08,14,15,16,32.60
2010,08,14,15,17,32.60
2010,08,14,15,18,32.50
2010,08,14,15,19,32.50
2010,08,14,15,20,32.40
2010,08,14,15,21,32.30
2010,08,14,15,22,32.40
2010,08,14,15,23,32.50
2010,08,14,15,24,32.50
2010,08,14,15,25,32.60
2010,08,14,15,26,32.70
2010,08,14,15,27,32.80
2010,08,14,15,28,32.90
2010,08,14,15,29,33.00
2010,08,14,15,30,33.00
2010,08,14,15,31,33.00
2010,08,14,15,32,33.10
2010,08,14,15,33,33.00
2010,08,14,15,34,33.00
2010,08,14,15,35,33.10
2010,08,14,15,36,33.20
2010,08,14,15,37,33.30
2010,08,14,15,38,33.30
2010,08,14,15,39,33.30
2010,08,14,15,40,33.30
2010,08,14,15,41,33.20
2010,08,14,15,42,33.10
2010,08,14,15,43,33.20
2010,08,14,15,44,33.20
2010,08,14,15,45,33.30
2010,08,14,15,46,33.30
2010,08,14,15,47,33.30
2010,08,14,15,48,33.40
2010,08,14,15,49,33.40
2010,08,14,15,50,33.50
2010,08,14,15,51,33.50
2010,08,14,15,52,33.40
2010,08,14,15,53,33.30
2010,08,14,15,54,33.20
2010,08,14,15,55,33.10
2010,08,14,15,56,33.00
2010,08,14,15,57,32.90
2010,08,14,15,58,33.00
2010,08,14,15,59,33.10
2010,08,14,16,00,33.10
2010,08,14,16,01,33.10
2010,08,14,16,02,33.20
2010,08,14,16,03,33.20
2010,08,14,16,04,33.20
2010,08,14,16,05,33.30
2010,08,14,16,06,33.30
2010,08,14,16,07,33.30
2010,08,14,16,08,33.40
2010,08,14,16,09,33.40
2010,08,14,16,10,33.50
2010,08,14,16,11,33.50
2010,08,14,16,12,33.60
2010,08,14,16,13,33.70
2010,08,14,16,14,33.70
2010,08,14,16,15,33.60
2010,08,14,16,16,33.50
2010,08,14,16,17,33.40
2010,08,14,16,18,33.40
2010,08,14,16,19,33.40
2010,08,14,16,20,33.40
2010,08,14,16,21,33.40
2010,08,14,16,22,33.30
2010,08,14,16,23,33.20
2010,08,14,16,24,33.10
2010,08,14,16,25,33.10
2010,08,14,16,26,33.20
2010,08,14,16,27,33.30
2010,08,14,16,28,33.30
2010,08,14,16,29,33.30
2010,08,14,16,30,33.40
2010,08,14,16,31,33.40
2010,08,14,16,32,33.50
2010,08,14,16,33,33.60
2010,08,14,16,34,33.60
2010,08,14,16,35,33.50
2010,08,14,16,36,33.40
2010,08,14,16,37,33.40
2010,08,14,16,38,33.40
2010,08,14,16,39,33.40
2010,08,14,16,40,33.40
2010,08,14,16,41,33.40
2010,08,14,16,42,33.40
2010,08,14,16,43,33.40
2010,08,14,16,44,33.40
2010,08,14,16,45,33.30
2010,08,14,16,46,33.20
2010,08,14,16,47,33.10
2010,08,14,16,48,32.90
2010,08,14,16,49,32.80
2010,08,14,16,50,32.80
2010,08,14,16,51,32.70
2010,08,14,16,52,32.80
2010,08,14,16,53,32.80
2010,08,14,16,54,32.80
2010,08,14,16,55,32.80
2010,08,14,16,56,32.80
2010,08,14,16,57,32.80
2010,08,14,16,58,32.80
2010,08,14,16,59,32.90
2010,08,14,17,00,32.90
2010,08,14,17,01,32.90
2010,08,14,17,02,32.90
2010,08,14,17,03,32.90
2010,08,14,17,04,33.00
2010,08,14,17,05,32.90
2010,08,14,17,06,32.90
2010,08,14,17,07,33.00
2010,08,14,17,08,32.90
2010,08,14,17,09,32.90
2010,08,14,17,10,32.80
2010,08,14,17,11,32.80
2010,08,14,17,12,32.80
2010,08,14,17,13,32.80
2010,08,14,17,14,32.90
2010,08,14,17,15,32.90
2010,08,14,17,16,33.00
2010,08,14,17,17,33.00
2010,08,14,17,18,33.00
2010,08,14,17,19,33.00
2010,08,14,17,20,33.00
2010,08,14,17,21,33.10
2010,08,14,17,22,33.10
2010,08,14,17,23,33.10
2010,08,14,17,24,33.10